Volver al catálogo

STARLINK-11344

ActivoComunicacionesVLEO
NORAD 61688·PAYLOAD·🇺🇸 United States

Lanzado Oct 30, 2024 desde Vandenberg Space Force Base

Loading…

Próximos Pases (próximas 24 horas)

TLE

ActualizadoSource: CelesTrak SupGP

Época: Sep 14, 2026, 13:58 UTC

1 61688C 24195B   26257.58243056  .00002328  00000+0  19187-4 0  2576
2 61688  53.1573 175.3821 0001084 104.3716  30.3311 15.69695571    13

Sigue STARLINK-11344 en tiempo real con AllMySat

Download on the App Store